Regional Weather Roundup
Issued by NWS

Home | Current Version | Previous Version | Graphics & Text | Print | Product List | Glossary On
Versions: 1 2 3 4 5 6 7 8 9 10 11 12 13 14 15 16 17 18 19 20 21 22 23 24 25 26 27 28 29 30 31 32 33 34 35 36 37 38 39 40 41 42 43 44 45 46 47 48 49 50
000
ASUS45 KBOU 242007
RWRCO

WEATHER ROUNDUP FOR COLORADO
NATIONAL WEATHER SERVICE DENVER/BOULDER CO
100 PM MST MON NOV 24 2014

NOTE: "FAIR" INDICATES FEW OR NO CLOUDS BELOW 12000 FEET WITH NO
SIGNIFICANT WEATHER AND/OR OBSTRUCTIONS TO VISIBILITY.

COZ001>005-013-030-031-242100-
...NORTHWEST COLORADO...

CITY           SKY/WX    TMP DP  RH WIND       PRES   REMARKS
CRAIG          PTSUNNY   34  18  52 N17G32    30.14R WCI  23
HAYDEN         PTSUNNY   27  16  63 NW13      30.11R WCI  16
MEEKER         LGT SNOW  28  24  85 SW5       30.15R FOG     WCI  23
MOUNT WERNER   NOT AVBL
STEAMBOAT SPGS CLOUDY    26  21  82 CALM      30.10R
WALDEN         CLOUDY    23  12  63 NW22      30.02R WCI   8
$$

COZ006>008-011-242100-
...WEST CENTRAL VALLEYS...

CITY           SKY/WX    TMP DP  RH WIND       PRES   REMARKS
GRAND JUNCTION MOSUNNY   38  18  44 N7        30.19F
MONTROSE       MOSUNNY   34  16  47 NW12G20   30.19F WCI  25
EAGLE          CLOUDY    28  21  74 W5        30.14R WCI  23
RIFLE          LGT SNOW  26  23  88 SW7       30.18S FOG     WCI  18
DELTA          PTSUNNY   43  17  34 W7G22     30.17R
NUCLA          PTSUNNY   34  18  51 N7G14     30.21S WCI  28
$$

COZ017>023-064>068-242100-
...SOUTHWEST COLORADO...

CITY           SKY/WX    TMP DP  RH WIND       PRES   REMARKS
DURANGO        PTSUNNY   33   5  30 N20       30.07F WCI  21
CORTEZ         PTSUNNY   38  11  32 NW20G28   30.15F
PAGOSA SPRINGS CLOUDY    30   7  38 NE5       30.07R WCI  25
TELLURIDE      SNOW      19  14  82 W9G23     30.10S VSB 1/2 WCI   7
WOLF CREEK PAS CLOUDY     9   0  66 MISG      29.99R HAZE
$$

COZ009-010-012-014-032>034-037-058>063-242100-
...CENTRAL COLORADO...

CITY           SKY/WX    TMP DP  RH WIND       PRES   REMARKS
ASPEN          CLOUDY    23  16  74 N12G20    30.08R WCI  12
BUENA VISTA    PTSUNNY   28   7  40 NW8       30.02S WCI  20
COPPER MTN     CLOUDY    10   3  72 W26G43    29.93R WCI -11
BERTHOUD PASS  SNOW       3  -2  78 NW28G37   29.88R VSB 1/4 WCI -21
COTTONWOOD PAS CLOUDY    23   9  54 NW7       29.99R WCI  15
GUNNISON       MOSUNNY   21  14  73 CALM      30.11R
KREMMLING      CLOUDY    30  12  47 NW10G20   30.06R WCI  21
LEADVILLE      LGT SNOW  12   8  84 W9        29.98R FOG     WCI   0
MONARCH PASS   CLOUDY     9   3  78 W16       30.05R WCI  -9
SALIDA         PTSUNNY   34   7  32 W15G23    30.09S WCI  24
SUNLIGHT       CLOUDY   N/A N/A N/A CALM      30.06R
WILKERSON PASS MOSUNNY   14   0  52 N9G23     29.96R WCI   2
$$

COZ069>075-242100-
...SAN LUIS VALLEY/SANGRE DE CRISTO MOUNTAINS...

CITY           SKY/WX    TMP DP  RH WIND       PRES   REMARKS
ALAMOSA        PTSUNNY   32   3  29 N6        30.02F WCI  26
LA VETA PASS   PTSUNNY   21   5  49 S8G20     29.96R WCI  12
SAGUACHE       NOT AVBL
$$

COZ035-036-038>040-242100-
...NORTHERN COLORADO FRONT RANGE...

CITY           SKY/WX    TMP DP  RH WIND       PRES   REMARKS
DENVER INTL AP PTSUNNY   41   7  24 NW21G33   29.97R
DMNS CITY PARK   N/A     42   6  22 W17       29.98R
AURORA         PTSUNNY   39   5  24 NW15      29.98R
FRONT RANGE AP PTSUNNY   43   9  24 NW17G26   29.97
ERIE MUNI ARPT MOSUNNY   46   0  15 NW20G25   29.98R
BOULDER MUN AP MOSUNNY   43   9  24 W17G25    29.98R
CENTENNIAL     PTSUNNY   40   5  23 NW16G24   29.97R
BROOMFIELD     PTSUNNY   41   9  26 W17G24    29.98R
FORT COLLINS   PTSUNNY   39  12  33 NW23      30.01R
LONGMONT       PTSUNNY   43  11  27 NW14G28   30.02R
$$

COZ041-046-047-076>085-087-088-242100-
...PIKES PEAK/PALMER DIVIDE AND SOUTHERN FOOTHILLS...

CITY           SKY/WX    TMP DP  RH WIND       PRES   REMARKS
COLO. SPRINGS  PTSUNNY   38   8  29 N17G39    29.97R
A. F. ACADEMY  PTSUNNY   33   8  34 N18       29.96R WCI  22
ELLICOTT       NOT AVBL
FALCON         NOT AVBL
FORT CARSON    MOSUNNY   39   8  27 NW18      29.96R
LIMON          MOSUNNY   41   6  23 NW28G37   29.95R
MONUMENT HILL  PTSUNNY   32   9  37 N15G24    29.95R WCI  22
TRINIDAD       PTSUNNY   37  15  40 NW17      29.98R
$$

COZ042>045-048>051-090-091-242100-
...NORTHEAST COLORADO...

CITY           SKY/WX    TMP DP  RH WIND       PRES   REMARKS
GREELEY ARPT   MOSUNNY   43  12  28 N25G38    30.00R
AKRON          CLOUDY    37  20  50 NW20G48   29.96R
BURLINGTON     MOSUNNY   45  14  28 NW21G26   29.93S
WRAY           PTSUNNY   46  17  31 NW20G29   29.93R
STERLING       PTSUNNY   45  21  39 N29G37    29.95R
HOLYOKE        PTSUNNY   43  21  42 NW24G31   29.93R
FORT MORGAN    CLOUDY    42  18  37 N32G44    30.00R
$$

COZ086-089-092>099-242100-
...SOUTHEAST COLORADO...

CITY           SKY/WX    TMP DP  RH WIND       PRES   REMARKS
PUEBLO         PTSUNNY   46   5  18 N5        29.97S
LA JUNTA       PTSUNNY   46  11  24 W12G21    29.97S
LAMAR          MOSUNNY   50  12  21 N13G22    29.95S
SPRINGFIELD      N/A     43   7  22 NW15G22   29.97R
$$



USA.gov is the U.S. government's official web portal to all federal, state and local government web resources and services.